Weather reports worldwide

Advertisment
Holbeach, United Kingdom (3469): temperature & dewpoint: 23.04.2017 06:00:00 - 29.04.2017 06:00:00 (BST)Holbeach, United Kingdom (3469): temperature -20cm & temperature -100cm: 23.04.2017 06:00:00 - 29.04.2017 06:00:00 (BST)Holbeach, United Kingdom (3469): wind speed & gusts: 23.04.2017 06:00:00 - 29.04.2017 06:00:00 (BST)Holbeach, United Kingdom (3469): wind direction: 23.04.2017 06:00:00 - 29.04.2017 06:00:00 (BST)Holbeach, United Kingdom (3469): reduced air pressure: 23.04.2017 06:00:00 - 29.04.2017 06:00:00 (BST)Holbeach, United Kingdom (3469): visibility: 23.04.2017 06:00:00 - 29.04.2017 06:00:00 (BST)Holbeach, United Kingdom (3469): precipitation: 23.04.2017 06:00:00 - 29.04.2017 06:00:00 (BST)
Date & Time tt [°C] td [°C] tt -20cm [°C] tt -100cm [°C] ff [km/h] ff [kn] fx [km/h] fx [kn] dd ppp [hPa] vv [km] rr [mm]
29.04.2017 06:00:00 7,6 5,5 - - 15 8 - - SSW 1015,2 15 0,0
29.04.2017 05:00:00 7,5 4,9 - - 9 5 - - S 1015,2 21 0,0
29.04.2017 04:00:00 7,5 4,8 - - 11 6 - - S 1015,3 26 0,0
29.04.2017 03:00:00 7,5 4,6 - - 9 5 - - S 1015,5 25 0,0
29.04.2017 02:00:00 7,6 4,5 - - 9 5 - - S 1015,8 30 0,0
29.04.2017 01:00:00 7,8 4,2 - - 11 6 - - S 1016,1 29 0,0
29.04.2017 00:00:00 7,7 4,3 - - 11 6 - - SSE 1016,3 45 0,0
28.04.2017 23:00:00 8,0 5,1 - - 11 6 - - SE 1016,6 40 0,0
28.04.2017 22:00:00 8,6 4,9 - - 13 7 - - SE 1016,6 50 0,0
28.04.2017 21:00:00 8,7 4,8 - - 15 8 - - ESE 1016,5 35 0,0
28.04.2017 20:00:00 8,7 4,2 - - 16 9 - - E 1016,4 50 0,0
28.04.2017 19:00:00 9,0 3,7 - - 15 8 - - E 1016,4 50 0,0
28.04.2017 18:00:00 10,0 4,1 - - 15 8 - - E 1016,4 29 0,0
28.04.2017 17:00:00 10,5 4,4 - - 16 9 - - E 1016,7 50 0,0
28.04.2017 16:00:00 10,4 5,0 - - 15 8 - - E 1016,7 40 0,0
28.04.2017 15:00:00 10,9 4,9 - - 21 11 - - ENE 1016,6 40 0,0
28.04.2017 14:00:00 8,7 5,2 - - 24 13 - - ENE 1016,9 40 0,0
28.04.2017 13:00:00 10,6 2,5 - - 11 6 - - NNW 1016,6 35 0,0
28.04.2017 12:00:00 9,6 4,1 - - 16 9 - - N 1016,7 40 0,0
28.04.2017 11:00:00 10,2 4,6 - - 16 9 - - N 1016,8 23 0,0
28.04.2017 10:00:00 8,8 4,2 8,4 9,7 18 10 - - NNW 1017,0 23 0,0
28.04.2017 09:00:00 7,7 4,8 - - 21 11 - - NNW 1016,9 24 0,0
28.04.2017 08:00:00 6,4 4,6 - - 22 12 - - NNW 1016,6 27 0,0
28.04.2017 07:00:00 3,9 3,5 - - 11 6 - - NW 1016,4 16 0,0
28.04.2017 06:00:00 2,8 2,1 - - 13 7 - - NNW 1016,3 21 0,0
28.04.2017 05:00:00 3,5 2,5 - - 13 7 - - NW 1016,3 27 0,0
28.04.2017 04:00:00 4,4 3,7 - - 16 9 - - NNW 1016,1 20 0,0
28.04.2017 03:00:00 5,5 4,5 - - 15 8 - - NW 1016,2 23 0,0
28.04.2017 02:00:00 6,3 4,4 - - 13 7 - - NNW 1016,4 40 0,0
28.04.2017 01:00:00 6,6 5,0 - - 15 8 - - NNW 1016,5 29 0,0
28.04.2017 00:00:00 7,2 5,7 - - 18 10 - - NNW 1016,5 40 0,0
27.04.2017 23:00:00 7,0 6,3 - - 8 4 - - W 1016,3 26 0,0
27.04.2017 22:00:00 7,0 6,1 - - 8 4 - - W 1016,3 30 0,2
27.04.2017 21:00:00 7,4 6,1 - - 4 2 - - W 1016,2 50 0,0
27.04.2017 20:00:00 7,6 5,3 - - 11 6 - - ENE 1015,8 50 0,0
27.04.2017 19:00:00 8,1 6,2 - - 18 10 - - NE 1015,7 10 0,8
27.04.2017 18:00:00 9,7 6,9 - - 8 4 - - NW 1015,3 10 0,0
27.04.2017 17:00:00 9,0 7,1 - - 8 4 - - W 1015,4 40 0,4
27.04.2017 16:00:00 7,9 6,3 - - 18 10 - - N 1015,7 19 0,4
27.04.2017 15:00:00 9,2 5,9 - - 21 11 - - W 1016,0 45 0,0
27.04.2017 14:00:00 9,0 6,9 - - 21 11 - - W 1016,5 14 0,0
27.04.2017 13:00:00 8,0 5,6 - - 21 11 - - W 1017,1 13 0,4
27.04.2017 12:00:00 7,9 4,7 - - 21 11 - - W 1017,4 30 0,0
27.04.2017 11:00:00 7,5 4,5 - - 26 14 - - W 1017,9 10 0,2
27.04.2017 10:00:00 7,1 3,0 7,7 9,9 22 12 - - W 1018,2 14 0,0
27.04.2017 09:00:00 6,3 2,6 - - 15 8 - - W 1018,4 10 0,0
27.04.2017 08:00:00 3,9 2,1 - - 15 8 - - W 1018,7 18 0,0
27.04.2017 07:00:00 1,9 0,6 - - 13 7 - - WSW 1018,8 19 0,0
27.04.2017 06:00:00 0,5 -0,5 - - 11 6 - - WSW 1019,0 20 0,0
27.04.2017 05:00:00 0,6 -0,5 - - 9 5 - - W 1019,2 30 0,0
27.04.2017 04:00:00 -0,2 -1,6 - - 11 6 - - W 1019,5 28 0,0
27.04.2017 03:00:00 0,2 -1,1 - - 15 8 - - W 1019,8 23 0,0
27.04.2017 02:00:00 0,0 -1,0 - - 13 7 - - WNW 1020,1 29 0,0
27.04.2017 01:00:00 0,7 -0,9 - - 15 8 - - NW 1020,4 27 0,0
27.04.2017 00:00:00 1,5 -0,4 - - 16 9 - - NW 1020,6 30 0,0
26.04.2017 23:00:00 2,1 0,4 - - 13 7 - - NNW 1020,6 30 0,0
26.04.2017 22:00:00 4,1 1,1 - - 18 10 - - N 1020,4 35 0,0
26.04.2017 21:00:00 5,1 1,2 - - 22 12 - - NNE 1020,1 40 0,0
26.04.2017 20:00:00 6,0 0,7 - - 29 16 - - NNE 1019,7 50 0,0
26.04.2017 19:00:00 7,2 1,1 - - 26 14 - - NNE 1019,4 50 0,0
26.04.2017 18:00:00 7,7 3,2 - - 29 16 46 25 NNE 1019,3 25 0,0
26.04.2017 17:00:00 7,8 3,9 - - 26 14 48 26 N 1019,2 50 0,0
26.04.2017 16:00:00 7,2 2,3 - - 31 17 46 25 NNE 1018,9 23 0,6
26.04.2017 15:00:00 7,5 5,1 - - 28 15 50 27 N 1018,7 35 0,4
26.04.2017 14:00:00 9,4 4,8 - - 35 19 54 29 NNE 1018,4 30 0,0
26.04.2017 13:00:00 7,6 3,6 - - 29 16 - - NNE 1018,3 30 0,0
26.04.2017 12:00:00 5,5 4,1 - - 29 16 59 32 N 1018,4 35 0,8
26.04.2017 11:00:00 7,9 4,1 - - 29 16 - - N 1017,7 45 0,0
26.04.2017 10:00:00 6,5 3,8 8,5 10,0 34 18 46 25 NNW 1017,5 30 0,0
26.04.2017 09:00:00 5,3 3,7 - - 34 18 - - NNW 1017,3 28 0,0
26.04.2017 08:00:00 3,5 2,4 - - 34 18 48 26 N 1017,0 23 0,2
26.04.2017 07:00:00 3,3 2,7 - - 29 16 - - NNW 1016,7 13 0,0
26.04.2017 06:00:00 2,7 1,9 - - 26 14 - - NNW 1016,2 12 0,0
26.04.2017 05:00:00 2,3 1,7 - - 18 10 - - NNW 1015,8 14 0,0
26.04.2017 04:00:00 2,0 1,3 - - 22 12 - - NW 1015,4 35 0,0
26.04.2017 03:00:00 2,2 1,6 - - 24 13 - - NW 1015,3 17 0,0
26.04.2017 02:00:00 2,8 2,0 - - 22 12 - - NNW 1015,4 26 0,0
26.04.2017 01:00:00 2,4 1,6 - - 22 12 - - NW 1015,2 30 0,0
26.04.2017 00:00:00 2,7 1,6 - - 22 12 - - NW 1015,2 50 0,0
25.04.2017 23:00:00 3,0 1,8 - - 21 11 - - NW 1015,0 40 0,0
25.04.2017 22:00:00 2,2 1,2 - - 15 8 - - NW 1014,9 50 0,0
25.04.2017 21:00:00 3,5 2,2 - - 18 10 54 29 N 1014,6 40 0,4
25.04.2017 20:00:00 4,4 2,0 - - 28 15 - - NNW 1014,0 50 0,0
25.04.2017 19:00:00 4,8 1,8 - - 31 17 - - N 1013,7 30 0,2
25.04.2017 18:00:00 5,7 2,6 - - 31 17 - - WSW 1013,6 10 0,2
25.04.2017 17:00:00 6,5 4,3 - - 28 15 - - NW 1013,4 50 0,2
25.04.2017 16:00:00 4,8 2,6 - - 22 12 52 28 NNW 1013,7 40 0,6
25.04.2017 15:00:00 6,0 1,4 - - 35 19 57 31 NNW 1013,1 45 0,0
25.04.2017 14:00:00 10,1 -1,7 - - 26 14 48 26 NW 1012,6 50 0,0
25.04.2017 13:00:00 8,9 -1,2 - - 24 13 48 26 NNW 1012,9 10 0,0
25.04.2017 12:00:00 8,3 -1,4 - - 26 14 - - NW 1012,9 29 0,0
25.04.2017 11:00:00 8,0 -1,6 - - 26 14 - - NW 1013,0 40 0,0
25.04.2017 10:00:00 6,3 -1,6 9,0 10,0 28 15 - - NW 1013,1 50 0,0
25.04.2017 09:00:00 4,8 -1,0 - - 26 14 - - NW 1012,9 45 0,0
25.04.2017 08:00:00 2,6 -1,7 - - 24 13 - - NW 1012,7 50 0,0
25.04.2017 07:00:00 1,0 -2,2 - - 16 9 - - WNW 1012,4 35 0,0
25.04.2017 06:00:00 -0,9 -3,3 - - 15 8 - - WNW 1011,7 35 0,0
25.04.2017 05:00:00 -0,7 -3,2 - - 15 8 - - W 1011,5 45 0,0
25.04.2017 04:00:00 0,6 -2,8 - - 18 10 - - WNW 1011,2 50 0,0
25.04.2017 03:00:00 1,1 -2,3 - - 16 9 - - W 1011,1 40 0,0
25.04.2017 02:00:00 1,8 -2,3 - - 18 10 - - WNW 1011,3 50 0,0
25.04.2017 01:00:00 2,3 -2,1 - - 18 10 - - W 1011,5 40 0,0
25.04.2017 00:00:00 2,5 -2,3 - - 18 10 48 26 WNW 1011,5 50 0,0
24.04.2017 23:00:00 4,5 -2,6 - - 28 15 - - NW 1011,4 40 0,0
24.04.2017 22:00:00 5,3 -4,0 - - 24 13 - - WNW 1011,2 35 0,0
24.04.2017 21:00:00 6,9 -4,5 - - 34 18 54 29 WNW 1011,1 50 0,0
24.04.2017 20:00:00 8,5 -3,3 - - 29 16 50 27 WNW 1010,5 50 0,0
24.04.2017 19:00:00 10,5 -1,1 - - 34 18 52 28 WNW 1010,7 45 0,0
24.04.2017 18:00:00 11,9 6,0 - - 22 12 - - W 1010,7 45 0,0
24.04.2017 17:00:00 10,2 5,5 - - 11 6 - - NW 1011,2 50 0,0
24.04.2017 16:00:00 9,6 6,3 - - 11 6 - - NNW 1011,9 40 0,0
24.04.2017 15:00:00 8,7 5,7 - - 15 8 - - N 1012,9 40 0,0
24.04.2017 14:00:00 9,7 6,0 - - 35 19 57 31 NNE 1012,9 10 0,0
24.04.2017 13:00:00 12,8 6,4 - - 28 15 - - W 1013,0 45 0,0
24.04.2017 12:00:00 12,4 6,0 - - 24 13 - - WNW 1013,5 10 0,0
24.04.2017 11:00:00 12,9 7,5 - - 26 14 - - W 1014,1 25 0,0
24.04.2017 10:00:00 11,2 7,8 10,7 10,0 24 13 - - W 1014,8 15 0,0
24.04.2017 09:00:00 11,2 7,1 - - 26 14 - - W 1015,2 40 0,0
24.04.2017 08:00:00 9,8 6,8 - - 21 11 - - W 1015,8 45 0,0
24.04.2017 07:00:00 9,2 6,6 - - 18 10 - - WSW 1016,1 40 0,0
24.04.2017 06:00:00 8,5 6,0 - - 18 10 - - WSW 1016,5 30 0,0
24.04.2017 05:00:00 8,0 5,6 - - 16 9 - - WSW 1017,0 35 0,0
24.04.2017 04:00:00 7,1 4,1 - - 16 9 - - WSW 1017,6 45 0,0
24.04.2017 03:00:00 6,8 3,7 - - 15 8 - - WSW 1018,3 50 0,0
24.04.2017 02:00:00 6,8 3,4 - - 11 6 - - W 1019,1 50 0,0
24.04.2017 01:00:00 6,6 2,7 - - 13 7 - - W 1019,8 50 0,0
24.04.2017 00:00:00 6,6 2,6 - - 16 9 - - W 1020,1 35 0,0
23.04.2017 23:00:00 7,7 3,1 - - 15 8 - - W 1020,6 50 0,0
23.04.2017 22:00:00 6,4 2,2 - - 9 5 - - WSW 1021,0 50 0,0
23.04.2017 21:00:00 8,2 2,1 - - 13 7 - - WSW 1021,4 50 0,0
23.04.2017 20:00:00 11,9 2,6 - - 15 8 - - WSW 1021,5 40 0,0
23.04.2017 19:00:00 14,1 2,8 - - 21 11 - - W 1021,9 50 0,0
23.04.2017 18:00:00 15,3 3,7 - - 18 10 - - W 1022,4 40 0,0
23.04.2017 17:00:00 15,4 3,4 - - 18 10 - - W 1023,0 45 0,0
23.04.2017 16:00:00 15,1 4,0 - - 16 9 - - W 1023,6 30 0,0
23.04.2017 15:00:00 13,3 2,1 - - 16 9 - - W 1024,4 35 0,0
23.04.2017 14:00:00 13,4 4,9 - - 13 7 - - WSW 1025,2 30 0,0
23.04.2017 13:00:00 12,5 3,9 - - 15 8 - - SW 1025,8 24 0,0
23.04.2017 12:00:00 11,8 4,0 - - 15 8 - - WSW 1026,6 23 0,0
23.04.2017 11:00:00 10,7 4,4 - - 16 9 - - SW 1027,2 26 0,0
23.04.2017 10:00:00 10,5 3,3 10,5 9,9 18 10 - - WSW 1027,4 35 0,0
23.04.2017 09:00:00 9,1 3,0 - - 9 5 - - W 1027,6 45 0,0
23.04.2017 08:00:00 6,9 4,1 - - 4 2 - - W 1027,8 40 0,0
23.04.2017 07:00:00 4,7 3,1 - - 2 1 - - WNW 1027,7 30 0,0
23.04.2017 06:00:00 4,1 2,0 - - 0 0 - - N 1027,7 40 0,0

tt = temperature
td = dewpoint
tt -20cm = temperature -20cm
tt -100cm = temperature -100cm
ff = wind speed
fx = gusts
dd = wind direction
ppp = reduced air pressure
vv = visibility
rr = precipitation

Next stations